Location: Kalberh�ni
(46.4610°N, 7.2453°E)
Time: 02:39:18
(UTC+00:00)

NOSS 3-2 (C) - Pass Details

Date: 20 June 2021
Orbit: 778 x 1434 km, 63.4° (Epoch: 14 July)

Event Time Altitude Azimuth Distance (km) Brightness Sun altitude
Rises 20:02:19 0° 235° (SW) 3,345 6.5 -5.5°
Reaches altitude 10° 20:04:41 10° 240° (WSW) 2,469 5.9 -5.8°
Maximum altitude 20:10:15 54° 318° (NW) 1,125 4.4 -6.5°
Drops below altitude 10° 20:16:45 10° 35° (NE) 2,866 6.1 -7.3°
Sets 20:19:42 0° 40° (NE) 3,931 6.8 -7.6°
